Regional Weather Roundup
Issued by NWS Sterling, VA

Home | Current Version | Previous Version | Graphics & Text | Print | Product List | Glossary On
Versions: 1 2 3 4 5 6 7 8 9 10 11 12 13 14 15 16 17 18 19 20 21 22 23 24 25 26 27 28 29 30 31 32 33 34 35 36 37 38 39 40 41 42 43 44 45 46 47 48 49 50
000
ASUS41 KLWX 040210
RWRLWX

REGIONAL WEATHER ROUNDUP
NATIONAL WEATHER SERVICE BALTIMORE MD/WASHINGTON DC
1000 PM EDT FRI JUL 03 2015

Note: "FAIR" indicates few or no clouds below 12,000 feet
with no significant weather and/or obstructions to visibility.
 TC=TEMPERATURE CELSIUS

 * =Non NWS site. Station does not report precipitation (e.g. rain,
    snow, etc.), thunder, or fog.

DCZ001-MDZ009-015-VAZ040>042-051-053>054-040300-
WASHINGTON METRO

CITY           SKY/WX    TMP DP  RH WIND       PRES   REMARKS
WASHINGTON NAT LGT RAIN  74  66  76 SE3       29.94R
DULLES         LGT RAIN  71  63  75 S6        29.93S
ANDREWS AFB    CLOUDY    70  68  95 SE3       29.93R
FT BELVOIR     CLOUDY    68  66  94 CALM      29.93R
QUANTICO       LGT RAIN  74  67  78 S7        29.94R
COLLEGE PARK*  CLOUDY    70  68  94 CALM      29.93S
LEESBURG*      CLOUDY    73  66  78 S8        29.95R
GAITHERSBURG*  CLOUDY    70  59  68 CALM      29.98R

$$

MDZ006>007-011-014-040300-
BALTIMORE METRO

CITY           SKY/WX    TMP DP  RH WIND       PRES   REMARKS
BWI AIRPORT    CLOUDY    72  65  78 CALM      29.93S
MD SCIENCE CTR   N/A     75  63  66 MISG      29.94R
MARTIN STATE   LGT RAIN  73  70  88 S5        29.95R
ANNAPOLIS      LGT RAIN  76  65  68 SE14      29.93R
FORT MEADE*    CLOUDY    68  64  88 CALM      29.96R

$$

MDZ012-015-019>023-040300-
MARYLAND EASTERN SHORE

CITY           SKY/WX    TMP DP  RH WIND       PRES   REMARKS
OCEAN CITY     CLOUDY    73  66  78 SE8       29.96S
SALISBURY      CLOUDY    70  66  87 CALM      29.95S
BAY BRIDGE AP*   N/A     73  61  64 SE10      29.94S
CAMBRIDGE*     CLOUDY    72  63  73 SE6       29.94S
EASTON*        CLOUDY    73  66  78 SE7       29.98

$$

MDZ017>025-040300-
SOUTHERN MARYLAND

CITY           SKY/WX    TMP DP  RH WIND       PRES   REMARKS
PATUXENT RIVER CLOUDY    74  63  68 SE15      29.92F
ST INIGOES     CLOUDY    75  64  68 SE8G17    29.92F
LEONARDTOWN*   CLOUDY    72  63  73 CALM      29.94F

$$

MDZ003>005-040300-
NORTH CENTRAL MARYLAND

CITY           SKY/WX    TMP DP  RH WIND       PRES   REMARKS
FREDERICK*     CLOUDY    73  66  78 SE8       29.96S
HAGERSTOWN APT CLOUDY    74  62  66 S6        29.93S
WESTMINSTER*   CLOUDY    73  64  73 S5        29.96R

$$

MDZ501>502-040300-
WESTERN MARYLAND

CITY           SKY/WX    TMP DP  RH WIND       PRES   REMARKS
OAKLAND*       CLOUDY    59 N/A N/A SE9       29.98S FOG
CUMBERLAND*    CLOUDY    66  66 100 CALM      29.98R VSB 1/2

$$

VAZ025>031-040300-
SHENANDOAH VALLEY

CITY           SKY/WX    TMP DP  RH WIND       PRES   REMARKS
WINCHESTER*    CLOUDY    70  68  94 CALM      29.94R
FRONT ROYAL*   CLOUDY    68  66  94 CALM      29.93R
LURAY*         LGT RAIN  68  68 100 CALM      29.94R
NEW MARKET*    CLOUDY    66  66  99 CALM      29.94R
STAUNTON*      CLOUDY    69  65  88 CALM      29.97R FOG
WAYNESBORO*    CLOUDY    67  65  91 CALM      29.96R

$$

WVZ021-048>050-054>055-040300-
EASTERN WEST VIRGINIA PANHANDLE

CITY           SKY/WX    TMP DP  RH WIND       PRES   REMARKS
MARTINSBURG    CLOUDY    70  66  87 CALM      29.94R
PETERSBURG*    CLOUDY    66  63  89 CALM      29.94F FOG

$$

VAZ036>039-050-040300-
CENTRAL FOOTHILLS

CITY           SKY/WX    TMP DP  RH WIND       PRES   REMARKS
CHARLOTTESVILL LGT RAIN  70  67  90 N3        29.93R FOG
CULPEPER*      CLOUDY    69  67  95 CALM      29.94R
ORANGE*        CLOUDY    70  68  94 CALM      29.95R FOG
GORDONSVILLE*  MOCLDY    68  66  94 CALM      29.92S FOG
WARRENTON*     FAIR      70  69  98 CALM      29.93R

$$

VAZ055>057-040300-
NORTH AND CENTRAL PIEDMONT

CITY           SKY/WX    TMP DP  RH WIND       PRES   REMARKS
FREDERICKSBRG* CLOUDY    73  73  99 CALM      29.92R
STAFFORD*      DRIZZLE   69  65  86 CALM      29.97R

$$

NCZ024-NYZ072-PAZ021-071-VAZ022-071-040300-
OTHER REGIONAL OBSERVATIONS

CITY           SKY/WX    TMP DP  RH WIND       PRES   REMARKS
NEW YORK CITY  CLOUDY    73  58  59 VRB3      30.00R
PHILADELPHIA   CLOUDY    74  64  71 S7        29.97R
PITTSBURGH     RAIN      67  65  93 E6        29.89F FOG
ROANOKE        LGT RAIN  68  67  96 NW3       29.96R FOG
RICHMOND       LGT RAIN  72  69  90 SE13      29.90S FOG
RALEIGH        CLOUDY    74  72  93 CALM      29.89R

$$

ANZ530>537-040300-
MARINE OBSERVATIONS

STATION/POSITION TIME  TEMP    WIND        PRES
                       AIR SEA DIR/SP/G
                 (UTC) (F)     (DEG/KT/KT) (MB)
THOMAS PT LIGHT  NOT AVBL
BALT KEY BRIDGE  0100   76     150/  7/  8 1013.2F
COVE POINT       0100   75     170/ 14/ 18 1014.2F
LEWISETTA        0100   75 80  150/  8/ 11 1013.2F
SOLOMONS ISLAND  0100      80                N/A
PINEY POINT      0100          150/ 16/ 17   N/A

$$




USA.gov is the U.S. government's official web portal to all federal, state and local government web resources and services.